Time,TemperatureF,DewpointF,PressureIn,WindDirection,WindDirectionDegrees,WindSpeedMPH,WindSpeedGustMPH,Humidity,HourlyPrecipIn,Conditions,Clouds,dailyrainin,SoftwareType,DateUTC
2013-03-03 00:02:00,32.0,26.0,29.73,WNW,301,1.0,3.0,79,0.00,,,0.00,,2013-03-03 05:02:00,
2013-03-03 00:12:00,32.0,26.0,29.73,WNW,301,1.0,3.0,79,0.00,,,0.00,,2013-03-03 05:12:00,
2013-03-03 00:22:00,32.0,26.0,29.73,NNE,13,0.0,7.0,78,0.00,,,0.00,,2013-03-03 05:22:00,
2013-03-03 00:32:00,32.0,26.0,29.73,North,353,0.0,3.0,78,0.00,,,0.00,,2013-03-03 05:32:00,
2013-03-03 00:42:00,32.0,26.0,29.73,North,353,0.0,3.0,78,0.00,,,0.00,,2013-03-03 05:42:00,
2013-03-03 00:52:00,32.0,27.0,29.74,NNW,340,1.0,3.0,80,0.00,,,0.00,,2013-03-03 05:52:00,
2013-03-03 01:02:00,31.0,26.0,29.74,NW,304,0.0,3.0,80,0.00,,,0.00,,2013-03-03 06:02:00,
2013-03-03 01:11:00,31.0,26.0,29.74,NW,304,0.0,3.0,80,0.00,,,0.00,,2013-03-03 06:11:00,
2013-03-03 01:21:00,31.0,26.0,29.74,NNE,23,0.0,3.0,80,0.00,,,0.00,,2013-03-03 06:21:00,
2013-03-03 01:32:00,31.0,25.0,29.74,NNE,17,1.0,5.0,77,0.00,,,0.00,,2013-03-03 06:32:00,
2013-03-03 01:42:00,31.0,25.0,29.74,NNE,17,1.0,5.0,77,0.00,,,0.00,,2013-03-03 06:42:00,
2013-03-03 01:52:00,31.0,25.0,29.74,North,1,1.0,3.0,77,0.00,,,0.00,,2013-03-03 06:52:00,
2013-03-03 02:01:00,31.0,25.0,29.74,ENE,64,1.0,5.0,77,0.00,,,0.00,,2013-03-03 07:01:00,
2013-03-03 02:11:00,31.0,25.0,29.74,ENE,64,1.0,5.0,77,0.00,,,0.00,,2013-03-03 07:11:00,
2013-03-03 02:21:00,31.0,24.0,29.73,NE,35,1.0,8.0,75,0.00,,,0.00,,2013-03-03 07:21:00,
2013-03-03 02:32:00,31.0,24.0,29.73,WNW,303,1.0,9.0,74,0.00,,,0.00,,2013-03-03 07:32:00,
2013-03-03 02:42:00,31.0,24.0,29.73,WNW,303,1.0,9.0,74,0.00,,,0.00,,2013-03-03 07:42:00,
2013-03-03 02:51:00,31.0,24.0,29.73,NW,308,2.0,7.0,74,0.00,,,0.00,,2013-03-03 07:51:00,
2013-03-03 03:01:00,30.0,23.0,29.72,WNW,292,0.0,3.0,74,0.00,,,0.00,,2013-03-03 08:01:00,
2013-03-03 03:11:00,30.0,23.0,29.72,WNW,292,0.0,3.0,74,0.00,,,0.00,,2013-03-03 08:11:00,
2013-03-03 03:21:00,31.0,24.0,29.72,WNW,287,0.0,3.0,74,0.00,,,0.00,,2013-03-03 08:21:00,
2013-03-03 03:32:00,30.0,23.0,29.72,NNE,30,1.0,3.0,74,0.00,,,0.00,,2013-03-03 08:32:00,
2013-03-03 03:42:00,30.0,23.0,29.72,NNE,30,1.0,3.0,74,0.00,,,0.00,,2013-03-03 08:42:00,
2013-03-03 03:53:00,30.0,23.0,29.72,NW,324,0.0,2.0,75,0.00,,,0.00,,2013-03-03 08:53:00,
2013-03-03 04:02:00,30.0,22.0,29.72,North,7,0.0,3.0,73,0.00,,,0.00,,2013-03-03 09:02:00,
2013-03-03 04:12:00,30.0,22.0,29.72,North,7,0.0,3.0,73,0.00,,,0.00,,2013-03-03 09:12:00,
2013-03-03 04:21:00,30.0,22.0,29.72,SE,124,2.0,5.0,73,0.00,,,0.00,,2013-03-03 09:21:00,
2013-03-03 04:32:00,30.0,22.0,29.72,North,6,0.0,6.0,71,0.00,,,0.00,,2013-03-03 09:32:00,
2013-03-03 04:42:00,30.0,22.0,29.72,North,6,0.0,6.0,71,0.00,,,0.00,,2013-03-03 09:42:00,
2013-03-03 04:51:00,30.0,21.0,29.72,NNE,22,1.0,5.0,70,0.00,,,0.00,,2013-03-03 09:51:00,
2013-03-03 05:01:00,30.0,21.0,29.72,West,265,1.0,6.0,68,0.00,,,0.00,,2013-03-03 10:01:00,
2013-03-03 05:11:00,30.0,21.0,29.72,West,265,1.0,6.0,68,0.00,,,0.00,,2013-03-03 10:11:00,
2013-03-03 05:21:00,30.0,21.0,29.72,North,0,1.0,6.0,68,0.00,,,0.00,,2013-03-03 10:21:00,
2013-03-03 05:32:00,30.0,20.0,29.73,North,8,2.0,6.0,67,0.00,,,0.00,,2013-03-03 10:32:00,
2013-03-03 05:42:00,30.0,20.0,29.73,North,8,2.0,6.0,67,0.00,,,0.00,,2013-03-03 10:42:00,
2013-03-03 05:52:00,30.0,20.0,29.73,SSW,202,1.0,7.0,67,0.00,,,0.00,,2013-03-03 10:52:00,
2013-03-03 06:01:00,30.0,20.0,29.73,North,3,1.0,8.0,66,0.00,,,0.00,,2013-03-03 11:01:00,
2013-03-03 06:11:00,30.0,20.0,29.73,North,3,1.0,8.0,66,0.00,,,0.00,,2013-03-03 11:11:00,
2013-03-03 06:22:00,30.0,20.0,29.73,NNE,14,1.0,6.0,66,0.00,,,0.00,,2013-03-03 11:22:00,
2013-03-03 06:32:00,30.0,20.0,29.74,ENE,59,1.0,6.0,67,0.00,,,0.00,,2013-03-03 11:32:00,
2013-03-03 06:42:00,30.0,20.0,29.74,ENE,59,1.0,6.0,67,0.00,,,0.00,,2013-03-03 11:42:00,
2013-03-03 06:52:00,30.0,20.0,29.74,NW,308,0.0,3.0,67,0.00,,,0.00,,2013-03-03 11:52:00,
2013-03-03 07:02:00,30.0,20.0,29.74,WSW,243,0.0,2.0,67,0.00,,,0.00,,2013-03-03 12:02:00,
2013-03-03 07:11:00,30.0,20.0,29.74,WSW,243,0.0,2.0,67,0.00,,,0.00,,2013-03-03 12:11:00,
2013-03-03 07:21:00,30.0,20.0,29.74,NNE,31,2.0,7.0,66,0.00,,,0.00,,2013-03-03 12:21:00,
2013-03-03 07:32:00,30.0,20.0,29.74,ENE,65,2.0,6.0,65,0.00,,,0.00,,2013-03-03 12:32:00,
2013-03-03 07:43:00,30.0,20.0,29.74,ENE,65,2.0,6.0,65,0.00,,,0.00,,2013-03-03 12:43:00,
2013-03-03 07:52:00,30.0,20.0,29.75,NW,319,1.0,9.0,65,0.00,,,0.00,,2013-03-03 12:52:00,
2013-03-03 08:02:00,30.0,20.0,29.75,NNW,342,2.0,6.0,65,0.00,,,0.00,,2013-03-03 13:02:00,
2013-03-03 08:11:00,30.0,20.0,29.75,NNW,342,2.0,6.0,65,0.00,,,0.00,,2013-03-03 13:11:00,
2013-03-03 08:22:00,30.0,20.0,29.75,NNE,20,1.0,6.0,65,0.00,,,0.00,,2013-03-03 13:22:00,
2013-03-03 08:32:00,30.0,20.0,29.75,North,3,1.0,5.0,65,0.00,,,0.00,,2013-03-03 13:32:00,
2013-03-03 08:42:00,30.0,20.0,29.75,North,3,1.0,5.0,65,0.00,,,0.00,,2013-03-03 13:42:00,
2013-03-03 08:52:00,30.0,19.0,29.75,North,6,1.0,5.0,64,0.00,,,0.00,,2013-03-03 13:52:00,
2013-03-03 09:02:00,31.0,20.0,29.74,WNW,291,0.0,3.0,63,0.00,,,0.00,,2013-03-03 14:02:00,
2013-03-03 09:11:00,31.0,20.0,29.74,WNW,291,0.0,3.0,63,0.00,,,0.00,,2013-03-03 14:11:00,
2013-03-03 09:22:00,31.0,20.0,29.74,WSW,251,1.0,9.0,63,0.00,,,0.00,,2013-03-03 14:22:00,
2013-03-03 09:32:00,31.0,20.0,29.74,NNW,335,0.0,5.0,62,0.00,,,0.00,,2013-03-03 14:32:00,
2013-03-03 09:42:00,31.0,20.0,29.74,NNW,335,0.0,5.0,62,0.00,,,0.00,,2013-03-03 14:42:00,
2013-03-03 09:52:00,31.0,20.0,29.73,SW,214,1.0,3.0,62,0.00,,,0.00,,2013-03-03 14:52:00,
2013-03-03 10:02:00,32.0,20.0,29.73,SSW,208,1.0,5.0,61,0.00,,,0.00,,2013-03-03 15:02:00,
2013-03-03 10:11:00,32.0,20.0,29.73,SSW,208,1.0,5.0,61,0.00,,,0.00,,2013-03-03 15:11:00,
2013-03-03 10:22:00,32.0,20.0,29.73,ESE,110,1.0,6.0,61,0.00,,,0.00,,2013-03-03 15:22:00,
2013-03-03 10:32:00,32.0,20.0,29.73,West,281,0.0,3.0,60,0.00,,,0.00,,2013-03-03 15:32:00,
2013-03-03 10:42:00,32.0,20.0,29.73,West,281,0.0,3.0,60,0.00,,,0.00,,2013-03-03 15:42:00,
2013-03-03 10:52:00,33.0,21.0,29.73,North,350,1.0,7.0,60,0.00,,,0.00,,2013-03-03 15:52:00,
2013-03-03 11:02:00,33.0,20.0,29.73,NNE,12,1.0,6.0,59,0.00,,,0.00,,2013-03-03 16:02:00,
2013-03-03 11:12:00,33.0,20.0,29.73,NNE,12,1.0,6.0,59,0.00,,,0.00,,2013-03-03 16:12:00,
2013-03-03 11:22:00,34.0,21.0,29.72,NNE,33,1.0,5.0,59,0.00,,,0.00,,2013-03-03 16:22:00,
2013-03-03 11:32:00,34.0,21.0,29.72,SSE,149,1.0,5.0,58,0.00,,,0.00,,2013-03-03 16:32:00,
2013-03-03 11:42:00,34.0,21.0,29.72,SSE,149,1.0,5.0,58,0.00,,,0.00,,2013-03-03 16:42:00,
2013-03-03 11:52:00,34.0,21.0,29.72,SW,216,2.0,5.0,58,0.00,,,0.00,,2013-03-03 16:52:00,
2013-03-03 12:01:00,34.0,20.0,29.72,SSW,192,2.0,6.0,57,0.00,,,0.00,,2013-03-03 17:01:00,
2013-03-03 12:11:00,34.0,20.0,29.72,South,170,1.0,7.0,56,0.00,,,0.00,,2013-03-03 17:11:00,
2013-03-03 12:22:00,34.0,20.0,29.72,South,170,1.0,7.0,56,0.00,,,0.00,,2013-03-03 17:22:00,
2013-03-03 12:32:00,35.0,20.0,29.71,SSW,201,1.0,5.0,55,0.00,,,0.00,,2013-03-03 17:32:00,
2013-03-03 12:42:00,35.0,20.0,29.71,SSW,201,1.0,5.0,55,0.00,,,0.00,,2013-03-03 17:42:00,
2013-03-03 12:52:00,35.0,20.0,29.70,SSW,195,2.0,6.0,55,0.00,,,0.00,,2013-03-03 17:52:00,
2013-03-03 13:02:00,37.0,21.0,29.69,North,358,2.0,8.0,52,0.00,,,0.00,,2013-03-03 18:02:00,
2013-03-03 13:11:00,37.0,21.0,29.69,North,358,2.0,8.0,52,0.00,,,0.00,,2013-03-03 18:11:00,
2013-03-03 13:22:00,38.0,22.0,29.69,SSE,164,2.0,5.0,51,0.00,,,0.00,,2013-03-03 18:22:00,
2013-03-03 13:32:00,39.0,21.0,29.68,SSE,150,1.0,6.0,49,0.00,,,0.00,,2013-03-03 18:32:00,
2013-03-03 13:42:00,39.0,21.0,29.68,SSE,150,1.0,6.0,49,0.00,,,0.00,,2013-03-03 18:42:00,
2013-03-03 13:52:00,39.0,21.0,29.67,SW,233,2.0,8.0,48,0.00,,,0.00,,2013-03-03 18:52:00,
2013-03-03 14:02:00,40.0,22.0,29.67,SW,231,2.0,8.0,49,0.00,,,0.00,,2013-03-03 19:02:00,
2013-03-03 14:11:00,40.0,22.0,29.67,SW,231,2.0,8.0,49,0.00,,,0.00,,2013-03-03 19:11:00,
2013-03-03 14:22:00,40.0,22.0,29.67,SSW,206,0.0,3.0,48,0.00,,,0.00,,2013-03-03 19:22:00,
2013-03-03 14:32:00,41.0,22.0,29.66,SE,141,1.0,7.0,47,0.00,,,0.00,,2013-03-03 19:32:00,
2013-03-03 14:42:00,41.0,22.0,29.66,SE,141,1.0,7.0,47,0.00,,,0.00,,2013-03-03 19:42:00,
2013-03-03 14:52:00,41.0,22.0,29.66,SE,141,1.0,7.0,47,0.00,,,0.00,,2013-03-03 19:52:00,
2013-03-03 15:01:00,41.0,22.0,29.66,SE,141,1.0,7.0,47,0.00,,,0.00,,2013-03-03 20:01:00,
2013-03-03 15:11:00,41.0,22.0,29.66,SE,141,1.0,7.0,47,0.00,,,0.00,,2013-03-03 20:11:00,
2013-03-03 16:32:00,40.0,22.0,29.67,ENE,77,1.0,7.0,49,0.00,,,0.00,,2013-03-03 21:32:00,
2013-03-03 16:42:00,40.0,22.0,29.67,ENE,77,1.0,7.0,49,0.00,,,0.00,,2013-03-03 21:42:00,
2013-03-03 16:52:00,39.0,21.0,29.67,ENE,58,3.0,9.0,49,0.00,,,0.00,,2013-03-03 21:52:00,
2013-03-03 17:02:00,38.0,22.0,29.68,SSE,157,1.0,6.0,53,0.00,,,0.00,,2013-03-03 22:02:00,
2013-03-03 17:11:00,38.0,22.0,29.68,SSE,157,1.0,6.0,53,0.00,,,0.00,,2013-03-03 22:11:00,
2013-03-03 17:22:00,38.0,22.0,29.68,WNW,291,1.0,9.0,53,0.00,,,0.00,,2013-03-03 22:22:00,
2013-03-03 17:32:00,37.0,22.0,29.68,WNW,286,2.0,7.0,54,0.00,,,0.00,,2013-03-03 22:32:00,
2013-03-03 17:42:00,37.0,22.0,29.68,WNW,286,2.0,7.0,54,0.00,,,0.00,,2013-03-03 22:42:00,
2013-03-03 17:52:00,37.0,22.0,29.68,WNW,286,2.0,7.0,54,0.00,,,0.00,,2013-03-03 22:52:00,
2013-03-03 18:02:00,36.0,22.0,29.69,South,185,3.0,6.0,56,0.00,,,0.00,,2013-03-03 23:02:00,
2013-03-03 18:11:00,36.0,22.0,29.69,South,185,3.0,6.0,56,0.00,,,0.00,,2013-03-03 23:11:00,
2013-03-03 18:22:00,36.0,22.0,29.69,WNW,294,1.0,6.0,57,0.00,,,0.00,,2013-03-03 23:22:00,
2013-03-03 18:32:00,35.0,22.0,29.70,ESE,105,2.0,6.0,58,0.00,,,0.00,,2013-03-03 23:32:00,
2013-03-03 18:42:00,35.0,22.0,29.70,ESE,105,2.0,6.0,58,0.00,,,0.00,,2013-03-03 23:42:00,
2013-03-03 18:52:00,35.0,22.0,29.70,SE,134,1.0,6.0,59,0.00,,,0.00,,2013-03-03 23:52:00,
2013-03-03 19:02:00,35.0,22.0,29.71,SE,135,1.0,7.0,59,0.00,,,0.00,,2013-03-04 00:02:00,
2013-03-03 19:11:00,35.0,22.0,29.71,SE,135,1.0,7.0,59,0.00,,,0.00,,2013-03-04 00:11:00,
2013-03-03 19:22:00,35.0,22.0,29.71,SE,135,1.0,7.0,59,0.00,,,0.00,,2013-03-04 00:22:00,
2013-03-03 19:32:00,34.0,20.0,29.72,NE,46,2.0,8.0,56,0.00,,,0.00,,2013-03-04 00:32:00,
2013-03-03 19:42:00,34.0,20.0,29.72,NE,46,2.0,8.0,56,0.00,,,0.00,,2013-03-04 00:42:00,
2013-03-03 19:52:00,34.0,20.0,29.72,North,349,3.0,9.0,56,0.00,,,0.00,,2013-03-04 00:52:00,
2013-03-03 20:02:00,34.0,20.0,29.73,SW,214,3.0,8.0,56,0.00,,,0.00,,2013-03-04 01:02:00,
2013-03-03 20:12:00,34.0,20.0,29.73,SW,214,3.0,8.0,56,0.00,,,0.00,,2013-03-04 01:12:00,
2013-03-03 20:22:00,34.0,20.0,29.73,SW,214,3.0,8.0,56,0.00,,,0.00,,2013-03-04 01:22:00,
2013-03-03 20:32:00,33.0,19.0,29.74,ESE,105,2.0,7.0,57,0.00,,,0.00,,2013-03-04 01:32:00,
2013-03-03 20:42:00,33.0,19.0,29.74,ESE,105,2.0,7.0,57,0.00,,,0.00,,2013-03-04 01:42:00,
2013-03-03 20:52:00,33.0,20.0,29.74,North,3,2.0,8.0,58,0.00,,,0.00,,2013-03-04 01:52:00,
2013-03-03 21:01:00,33.0,20.0,29.75,South,180,1.0,5.0,59,0.00,,,0.00,,2013-03-04 02:01:00,
2013-03-03 21:11:00,33.0,20.0,29.75,South,180,1.0,5.0,59,0.00,,,0.00,,2013-03-04 02:11:00,
2013-03-03 21:22:00,32.0,19.0,29.75,SSW,201,1.0,7.0,59,0.00,,,0.00,,2013-03-04 02:22:00,
2013-03-03 21:32:00,32.0,19.0,29.75,West,280,0.0,10.0,59,0.00,,,0.00,,2013-03-04 02:32:00,
2013-03-03 21:42:00,32.0,19.0,29.75,West,280,0.0,10.0,59,0.00,,,0.00,,2013-03-04 02:42:00,
2013-03-03 21:52:00,32.0,20.0,29.75,WSW,254,2.0,5.0,60,0.00,,,0.00,,2013-03-04 02:52:00,
2013-03-03 22:02:00,32.0,20.0,29.76,ENE,78,1.0,6.0,60,0.00,,,0.00,,2013-03-04 03:02:00,
2013-03-03 22:11:00,32.0,20.0,29.76,ENE,78,1.0,6.0,60,0.00,,,0.00,,2013-03-04 03:11:00,
2013-03-03 22:22:00,32.0,20.0,29.75,NW,323,2.0,10.0,60,0.00,,,0.00,,2013-03-04 03:22:00,
2013-03-03 22:32:00,31.0,19.0,29.75,East,96,1.0,8.0,61,0.00,,,0.00,,2013-03-04 03:32:00,
2013-03-03 22:42:00,31.0,20.0,29.75,SSW,199,1.0,5.0,62,0.00,,,0.00,,2013-03-04 03:42:00,
2013-03-03 22:52:00,31.0,20.0,29.75,SSW,199,1.0,5.0,62,0.00,,,0.00,,2013-03-04 03:52:00,
2013-03-03 23:02:00,30.0,19.0,29.75,NW,321,1.0,7.0,63,0.00,,,0.00,,2013-03-04 04:02:00,
2013-03-03 23:11:00,30.0,19.0,29.75,NW,321,1.0,7.0,63,0.00,,,0.00,,2013-03-04 04:11:00,
2013-03-03 23:22:00,30.0,19.0,29.75,NNE,33,3.0,12.0,63,0.00,,,0.00,,2013-03-04 04:22:00,
2013-03-03 23:32:00,30.0,19.0,29.76,West,273,1.0,6.0,63,0.00,,,0.00,,2013-03-04 04:32:00,
2013-03-03 23:42:00,30.0,19.0,29.76,West,273,1.0,6.0,63,0.00,,,0.00,,2013-03-04 04:42:00,
2013-03-03 23:52:00,30.0,19.0,29.76,NW,321,1.0,3.0,63,0.00,,,0.00,,2013-03-04 04:52:00,